| time (UTC) | temp C | wind direction | speed KPH | gust KPH | rain 1hr cm | rain 24hr cm | rain mn cm | humidity % | barometer mb |
| 20260507070108 | 12 | 223 | 1.6 | 0.0 | 0.00 | 0.00 | 0.00 | 92 | 1100.1 |
| 20260507070010 | 12 | 0 | 0.0 | 0.0 | 0.00 | 0.41 | 0.00 | 95 | 1006.0 |
| 20260507065505 | 12 | 0 | 0.0 | 0.0 | 0.00 | 0.41 | 0.00 | 95 | 1006.0 |
| 20260507065005 | 12 | 0 | 0.0 | 0.0 | 0.00 | 0.41 | 0.00 | 95 | 1006.0 |
| 20260507064559 | 12 | 223 | 0.0 | 0.0 | 0.00 | 0.00 | 0.00 | 92 | 1100.1 |
| 20260507064005 | 12 | 0 | 0.0 | 0.0 | 0.00 | 0.41 | 0.00 | 95 | 1005.8 |
| 20260507063136 | 11 | 223 | 1.6 | 0.0 | 0.00 | 0.00 | 0.00 | 92 | 1100.1 |
| 20260507063005 | 12 | 0 | 0.0 | 0.0 | 0.00 | 0.41 | 0.00 | 95 | 1005.9 |
| 20260507061624 | 11 | 223 | 1.6 | 0.0 | 0.00 | 0.00 | 0.00 | 91 | 1100.1 |
| 20260507061505 | 11 | 358 | 0.0 | 0.0 | 0.00 | 0.41 | 0.00 | 95 | 1006.4 |
| 20260507061006 | 11 | 0 | 0.0 | 0.0 | 0.00 | 0.41 | 0.00 | 95 | 1006.2 |
| 20260507060505 | 11 | 358 | 0.0 | 0.0 | 0.00 | 0.41 | 0.00 | 95 | 1006.4 |
| 20260507060014 | 11 | 223 | 1.6 | 0.0 | 0.00 | 0.00 | 0.00 | 91 | 1100.1 |
| 20260507060005 | 11 | 0 | 0.0 | 0.0 | 0.00 | 0.41 | 0.00 | 95 | 1006.3 |
| 20260507055505 | 11 | 357 | 0.0 | 0.0 | 0.00 | 0.41 | 0.00 | 95 | 1006.4 |
| 20260507055006 | 11 | 0 | 0.0 | 0.0 | 0.00 | 0.41 | 0.00 | 95 | 1006.3 |
| 20260507054609 | 11 | 223 | 1.6 | 0.0 | 0.00 | 0.00 | 0.00 | 91 | 1100.1 |
| 20260507054505 | 11 | 0 | 0.0 | 0.0 | 0.00 | 0.41 | 0.00 | 95 | 1006.4 |
| 20260507054006 | 11 | 0 | 0.0 | 0.0 | 0.00 | 0.41 | 0.00 | 95 | 1006.6 |
| 20260507053505 | 11 | 358 | 0.0 | 0.0 | 0.00 | 0.41 | 0.00 | 95 | 1006.7 |
| 20260507053010 | 11 | 223 | 3.2 | 0.0 | 0.00 | 0.00 | 0.00 | 91 | 1100.1 |
| 20260507051600 | 12 | 223 | 3.2 | 0.0 | 0.00 | 0.00 | 0.00 | 91 | 1100.1 |
| 20260507051504 | 12 | 0 | 0.0 | 0.0 | 0.00 | 0.41 | 0.00 | 95 | 1006.9 |
| 20260507051005 | 12 | 358 | 0.0 | 0.0 | 0.00 | 0.41 | 0.00 | 95 | 1006.9 |
| 20260507050134 | 12 | 223 | 3.2 | 0.0 | 0.00 | 0.00 | 0.00 | 91 | 1100.1 |
| 20260507050006 | 12 | 0 | 0.0 | 0.0 | 0.00 | 0.41 | 0.00 | 95 | 1007.1 |
| 20260507044625 | 12 | 209 | 1.6 | 0.0 | 0.00 | 0.00 | 0.00 | 91 | 1100.1 |
| 20260507044505 | 12 | 359 | 0.0 | 0.0 | 0.00 | 0.41 | 0.00 | 95 | 1006.9 |
| 20260507044005 | 12 | 357 | 0.0 | 0.0 | 0.00 | 0.41 | 0.00 | 95 | 1006.9 |
| 20260507043505 | 12 | 357 | 0.0 | 0.0 | 0.00 | 0.41 | 0.00 | 95 | 1006.9 |
| 20260507043127 | 12 | 190 | 3.2 | 0.0 | 0.00 | 0.00 | 0.51 | 91 | 1100.1 |
| 20260507042005 | 12 | 359 | 0.0 | 0.0 | 0.00 | 0.41 | 0.00 | 95 | 1007.1 |
| 20260507041622 | 12 | 220 | 3.2 | 0.0 | 0.00 | 0.00 | 0.51 | 91 | 1100.1 |
| 20260507041505 | 12 | 359 | 0.0 | 0.0 | 0.00 | 0.41 | 0.00 | 95 | 1007.1 |
| 20260507041005 | 12 | 359 | 0.0 | 0.0 | 0.00 | 0.41 | 0.00 | 95 | 1007.0 |
| 20260507040120 | 12 | 200 | 3.2 | 0.0 | 0.00 | 0.00 | 0.51 | 91 | 1100.1 |
| 20260507035504 | 12 | 359 | 0.0 | 0.0 | 0.00 | 0.41 | 0.41 | 95 | 1007.2 |
| 20260507034648 | 12 | 227 | 3.2 | 0.0 | 0.00 | 0.00 | 0.51 | 91 | 1100.1 |
| 20260507034505 | 12 | 0 | 0.0 | 0.0 | 0.00 | 0.41 | 0.41 | 95 | 1007.4 |
| 20260507033103 | 12 | 227 | 4.8 | 0.0 | 0.00 | 0.00 | 0.51 | 91 | 1100.1 |
| 20260507032006 | 12 | 359 | 0.0 | 0.0 | 0.00 | 0.41 | 0.41 | 94 | 1007.3 |
| 20260507031606 | 12 | 222 | 6.4 | 0.0 | 0.00 | 0.00 | 0.51 | 91 | 1100.1 |
| 20260507031505 | 12 | 0 | 0.0 | 0.0 | 0.00 | 0.41 | 0.41 | 94 | 1007.3 |
| 20260507030505 | 12 | 357 | 0.0 | 0.0 | 0.00 | 0.41 | 0.41 | 94 | 1006.9 |
| 20260507030004 | 12 | 227 | 6.4 | 0.0 | 0.00 | 0.00 | 0.51 | 91 | 1100.1 |
| 20260507025005 | 12 | 358 | 0.0 | 0.0 | 0.00 | 0.41 | 0.41 | 94 | 1006.9 |
| 20260507024553 | 12 | 242 | 4.8 | 0.0 | 0.00 | 0.00 | 0.51 | 91 | 1100.1 |
| 20260507023143 | 12 | 242 | 4.8 | 0.0 | 0.00 | 0.00 | 0.51 | 91 | 1100.1 |
| 20260507023005 | 12 | 358 | 0.0 | 0.0 | 0.00 | 0.41 | 0.41 | 94 | 1007.3 |
| 20260507022504 | 12 | 358 | 0.0 | 0.0 | 0.00 | 0.41 | 0.41 | 94 | 1007.5 |
| 20260507021631 | 12 | 238 | 6.4 | 0.0 | 0.00 | 0.00 | 0.51 | 91 | 1100.1 |
| 20260507021504 | 12 | 358 | 0.0 | 0.0 | 0.00 | 0.41 | 0.41 | 94 | 1007.6 |
| 20260507020504 | 12 | 359 | 0.0 | 0.0 | 0.00 | 0.41 | 0.41 | 94 | 1007.7 |
| 20260507020056 | 12 | 234 | 6.4 | 0.0 | 0.00 | 0.00 | 0.51 | 91 | 1100.1 |
| 20260507014505 | 12 | 221 | 8.0 | 0.0 | 0.00 | 0.00 | 0.51 | 91 | 1100.1 |
| 20260507013505 | 13 | 358 | 0.0 | 0.0 | 0.05 | 0.41 | 0.41 | 94 | 1008.1 |
| 20260507013141 | 12 | 227 | 8.0 | 0.0 | 0.00 | 0.00 | 0.51 | 90 | 1100.1 |
| 20260507013005 | 13 | 358 | 0.0 | 0.0 | 0.05 | 0.41 | 0.41 | 94 | 1008.1 |
| 20260507012505 | 13 | 0 | 0.0 | 0.0 | 0.05 | 0.41 | 0.41 | 94 | 1008.2 |
| 20260507012005 | 13 | 358 | 0.0 | 0.0 | 0.08 | 0.41 | 0.41 | 94 | 1008.2 |
| 20260507011642 | 13 | 240 | 8.0 | 0.0 | 0.00 | 0.00 | 0.51 | 90 | 1100.1 |
| 20260507011504 | 13 | 357 | 0.0 | 0.0 | 0.10 | 0.41 | 0.41 | 94 | 1008.1 |
| 20260507011005 | 13 | 358 | 0.0 | 0.0 | 0.10 | 0.41 | 0.41 | 94 | 1008.2 |
| 20260507010138 | 13 | 225 | 9.7 | 0.0 | 0.00 | 0.00 | 0.51 | 90 | 1100.1 |
| 20260507005504 | 13 | 357 | 0.0 | 0.0 | 0.15 | 0.41 | 0.41 | 94 | 1008.1 |
| 20260507004512 | 13 | 236 | 8.0 | 0.0 | 0.00 | 0.00 | 0.48 | 90 | 1100.1 |
| 20260507004505 | 13 | 358 | 0.0 | 0.0 | 0.18 | 0.38 | 0.38 | 94 | 1008.1 |
| 20260507003505 | 13 | 358 | 0.0 | 0.0 | 0.20 | 0.36 | 0.36 | 94 | 1008.1 |
| 20260507003105 | 13 | 246 | 8.0 | 0.0 | 0.00 | 0.00 | 0.46 | 90 | 1100.1 |
| 20260507002504 | 13 | 359 | 0.0 | 0.0 | 0.25 | 0.36 | 0.36 | 93 | 1008.2 |
| 20260507001502 | 13 | 226 | 8.0 | 0.0 | 0.00 | 0.00 | 0.41 | 90 | 1100.1 |
| 20260507000140 | 13 | 166 | 8.0 | 0.0 | 0.00 | 0.00 | 0.36 | 90 | 1100.1 |
| 20260507000005 | 13 | 358 | 0.0 | 0.0 | 0.25 | 0.28 | 0.28 | 93 | 1008.1 |
| 20260506235504 | 13 | 357 | 0.0 | 0.0 | 0.23 | 0.25 | 0.25 | 93 | 1008.1 |
| 20260506235005 | 13 | 357 | 0.0 | 0.0 | 0.23 | 0.25 | 0.25 | 93 | 1008.1 |
| 20260506234637 | 13 | 240 | 8.0 | 0.0 | 0.00 | 0.00 | 0.30 | 90 | 1100.1 |
| 20260506234505 | 13 | 0 | 0.0 | 0.0 | 0.20 | 0.20 | 0.20 | 93 | 1008.1 |
| 20260506233128 | 13 | 236 | 8.0 | 0.0 | 0.00 | 0.00 | 0.15 | 89 | 1100.1 |
| 20260506231625 | 13 | 236 | 9.7 | 0.0 | 0.00 | 0.00 | 0.13 | 89 | 1100.1 |
| 20260506230505 | 13 | 0 | 0.0 | 0.0 | 0.05 | 0.05 | 0.05 | 91 | 1008.1 |
| 20260506230142 | 12 | 216 | 8.0 | 0.0 | 0.00 | 0.00 | 0.08 | 88 | 1100.1 |
| 20260506225007 | 13 | 0 | 0.0 | 0.0 | 0.03 | 0.03 | 0.03 | 90 | 1008.3 |
| 20260506224636 | 13 | 219 | 11.3 | 0.0 | 0.00 | 0.00 | 0.03 | 87 | 1100.1 |
| 20260506224005 | 13 | 358 | 0.0 | 0.0 | 0.00 | 0.00 | 0.00 | 90 | 1008.4 |
| 20260506223504 | 13 | 0 | 0.0 | 0.0 | 0.00 | 0.00 | 0.00 | 90 | 1008.5 |
| 20260506223134 | 13 | 246 | 9.7 | 0.0 | 0.00 | 0.00 | 0.03 | 86 | 1100.1 |
| 20260506222504 | 13 | 358 | 0.0 | 0.0 | 0.00 | 0.00 | 0.00 | 89 | 1008.6 |
| 20260506221631 | 13 | 250 | 9.7 | 0.0 | 0.00 | 0.00 | 0.00 | 85 | 1100.1 |
| 20260506221504 | 14 | 358 | 0.0 | 0.0 | 0.00 | 0.00 | 0.00 | 88 | 1008.6 |
| 20260506220124 | 14 | 234 | 9.7 | 0.0 | 0.00 | 0.00 | 0.00 | 83 | 1100.1 |
| 20260506220005 | 14 | 0 | 0.0 | 0.0 | 0.00 | 0.00 | 0.00 | 87 | 1008.5 |
| 20260506215505 | 14 | 0 | 0.0 | 0.0 | 0.00 | 0.00 | 0.00 | 87 | 1008.4 |
| 20260506214612 | 14 | 231 | 9.7 | 0.0 | 0.00 | 0.00 | 0.00 | 83 | 1100.1 |
| 20260506213505 | 14 | 0 | 0.0 | 0.0 | 0.00 | 0.00 | 0.00 | 87 | 1008.6 |
| 20260506213112 | 14 | 215 | 9.7 | 0.0 | 0.00 | 0.00 | 0.00 | 83 | 1100.1 |
| 20260506212005 | 14 | 0 | 0.0 | 0.0 | 0.00 | 0.00 | 0.00 | 87 | 1009.0 |
| 20260506211616 | 14 | 227 | 9.7 | 0.0 | 0.00 | 0.00 | 0.00 | 83 | 1100.1 |
| 20260506211505 | 14 | 0 | 0.0 | 0.0 | 0.00 | 0.00 | 0.00 | 87 | 1009.0 |
| 20260506210504 | 14 | 0 | 0.0 | 0.0 | 0.00 | 0.00 | 0.00 | 86 | 1009.1 |
| 20260506210121 | 14 | 252 | 11.3 | 0.0 | 0.00 | 0.00 | 0.00 | 82 | 1100.1 |
| 20260506204616 | 14 | 257 | 11.3 | 0.0 | 0.00 | 0.00 | 0.00 | 81 | 1100.1 |
| 20260506204005 | 14 | 0 | 0.0 | 0.0 | 0.00 | 0.00 | 0.00 | 84 | 1009.1 |
| 20260506203145 | 14 | 231 | 9.7 | 0.0 | 0.00 | 0.00 | 0.00 | 81 | 1100.1 |
| 20260506202005 | 14 | 0 | 0.0 | 0.0 | 0.00 | 0.00 | 0.00 | 84 | 1009.4 |
| 20260506201613 | 14 | 236 | 9.7 | 0.0 | 0.00 | 0.00 | 0.00 | 80 | 1100.1 |
| 20260506201005 | 14 | 0 | 0.0 | 0.0 | 0.00 | 0.00 | 0.00 | 84 | 1009.5 |
| 20260506200123 | 14 | 262 | 11.3 | 0.0 | 0.00 | 0.00 | 0.00 | 79 | 1100.1 |
| 20260506200005 | 15 | 0 | 0.0 | 0.0 | 0.00 | 0.00 | 0.00 | 83 | 1009.6 |
| 20260506195505 | 15 | 0 | 0.0 | 0.0 | 0.00 | 0.00 | 0.00 | 82 | 1009.7 |
| 20260506195005 | 15 | 0 | 0.0 | 0.0 | 0.00 | 0.00 | 0.00 | 82 | 1009.6 |
| 20260506194621 | 15 | 217 | 11.3 | 0.0 | 0.00 | 0.00 | 0.00 | 79 | 1100.1 |
| 20260506194004 | 15 | 0 | 0.0 | 0.0 | 0.00 | 0.00 | 0.00 | 82 | 1009.7 |
| 20260506193113 | 15 | 230 | 12.9 | 0.0 | 0.00 | 0.00 | 0.00 | 79 | 1100.1 |
| 20260506192504 | 15 | 0 | 0.0 | 0.0 | 0.00 | 0.00 | 0.00 | 82 | 1009.8 |
| 20260506192005 | 15 | 0 | 0.0 | 0.0 | 0.00 | 0.00 | 0.00 | 82 | 1009.9 |
| 20260506191612 | 15 | 263 | 11.3 | 0.0 | 0.00 | 0.00 | 0.00 | 78 | 1100.1 |
| 20260506191504 | 15 | 0 | 0.0 | 0.0 | 0.00 | 0.00 | 0.00 | 82 | 1009.9 |
| 20260506191005 | 15 | 0 | 0.0 | 0.0 | 0.00 | 0.00 | 0.00 | 81 | 1009.9 |
| 20260506190505 | 15 | 0 | 0.0 | 0.0 | 0.00 | 0.00 | 0.00 | 81 | 1009.9 |
| 20260506190110 | 15 | 249 | 12.9 | 0.0 | 0.00 | 0.00 | 0.00 | 77 | 1100.1 |
| 20260506190005 | 15 | 0 | 0.0 | 0.0 | 0.00 | 0.00 | 0.00 | 81 | 1009.9 |
| 20260506185505 | 15 | 0 | 0.0 | 0.0 | 0.00 | 0.00 | 0.00 | 81 | 1009.9 |
| 20260506185004 | 15 | 0 | 0.0 | 0.0 | 0.00 | 0.00 | 0.00 | 81 | 1010.0 |
| 20260506184516 | 15 | 192 | 12.9 | 0.0 | 0.00 | 0.00 | 0.00 | 77 | 1100.1 |
| 20260506184505 | 15 | 0 | 0.0 | 0.0 | 0.00 | 0.00 | 0.00 | 81 | 1010.1 |
| 20260506183115 | 15 | 194 | 11.3 | 0.0 | 0.00 | 0.00 | 0.00 | 78 | 1100.1 |
| 20260506182506 | 15 | 0 | 0.0 | 0.0 | 0.00 | 0.00 | 0.00 | 80 | 1010.6 |
| 20260506182006 | 16 | 0 | 0.0 | 0.0 | 0.00 | 0.00 | 0.00 | 80 | 1010.6 |
| 20260506181621 | 15 | 189 | 11.3 | 0.0 | 0.00 | 0.00 | 0.00 | 77 | 1100.1 |
| 20260506181506 | 16 | 0 | 0.0 | 0.0 | 0.00 | 0.00 | 0.00 | 79 | 1010.7 |
| 20260506181006 | 16 | 0 | 0.0 | 0.0 | 0.00 | 0.00 | 0.00 | 78 | 1010.8 |
| 20260506180506 | 16 | 0 | 0.0 | 0.0 | 0.00 | 0.00 | 0.00 | 77 | 1010.8 |
| 20260506180116 | 16 | 172 | 11.3 | 0.0 | 0.00 | 0.00 | 0.00 | 74 | 1100.1 |
| 20260506180006 | 16 | 0 | 0.0 | 0.0 | 0.00 | 0.00 | 0.00 | 77 | 1010.9 |
| 20260506175006 | 17 | 0 | 0.0 | 0.0 | 0.00 | 0.00 | 0.00 | 77 | 1011.2 |
| 20260506174614 | 16 | 245 | 16.1 | 0.0 | 0.00 | 0.00 | 0.00 | 74 | 1100.1 |
| 20260506173506 | 17 | 0 | 0.0 | 0.0 | 0.00 | 0.00 | 0.00 | 77 | 1011.1 |
| 20260506173127 | 17 | 231 | 14.5 | 0.0 | 0.00 | 0.00 | 0.00 | 74 | 1100.1 |
| 20260506173006 | 17 | 0 | 0.0 | 0.0 | 0.00 | 0.00 | 0.00 | 75 | 1011.0 |
| 20260506172506 | 17 | 0 | 0.0 | 0.0 | 0.00 | 0.00 | 0.00 | 77 | 1011.1 |
| 20260506171626 | 16 | 257 | 12.9 | 0.0 | 0.00 | 0.00 | 0.00 | 76 | 1100.1 |
| 20260506170507 | 16 | 0 | 0.0 | 0.0 | 0.00 | 0.00 | 0.00 | 78 | 1011.5 |
| 20260506170133 | 16 | 227 | 12.9 | 0.0 | 0.00 | 0.00 | 0.00 | 76 | 1100.1 |
| 20260506164637 | 16 | 236 | 11.3 | 0.0 | 0.00 | 0.00 | 0.00 | 75 | 1100.1 |
| 20260506164505 | 17 | 0 | 0.0 | 0.0 | 0.00 | 0.00 | 0.00 | 77 | 1011.6 |
| 20260506164006 | 16 | 0 | 0.0 | 0.0 | 0.00 | 0.00 | 0.00 | 78 | 1011.7 |
| 20260506163145 | 16 | 228 | 9.7 | 0.0 | 0.00 | 0.00 | 0.00 | 75 | 1100.1 |
| 20260506163006 | 17 | 0 | 0.0 | 0.0 | 0.00 | 0.00 | 0.00 | 77 | 1011.9 |
| 20260506161628 | 16 | 209 | 9.7 | 0.0 | 0.00 | 0.00 | 0.00 | 75 | 1100.1 |
| 20260506160506 | 17 | 0 | 0.0 | 0.0 | 0.00 | 0.00 | 0.00 | 77 | 1012.2 |
| 20260506160006 | 17 | 0 | 0.0 | 0.0 | 0.00 | 0.00 | 0.00 | 75 | 1012.2 |
| 20260506160001 | 16 | 237 | 12.9 | 0.0 | 0.00 | 0.00 | 0.00 | 75 | 1100.1 |
| 20260506154505 | 16 | 233 | 12.9 | 0.0 | 0.00 | 0.00 | 0.00 | 75 | 1100.1 |
| 20260506153129 | 16 | 228 | 14.5 | 0.0 | 0.00 | 0.00 | 0.00 | 75 | 1100.1 |
| 20260506153006 | 16 | 0 | 0.0 | 0.0 | 0.00 | 0.00 | 0.00 | 77 | 1012.6 |
| 20260506152506 | 16 | 0 | 0.0 | 0.0 | 0.00 | 0.00 | 0.00 | 78 | 1012.5 |
| 20260506151514 | 16 | 192 | 11.3 | 0.0 | 0.00 | 0.00 | 0.00 | 77 | 1100.1 |
| 20260506150007 | 15 | 256 | 12.9 | 0.0 | 0.00 | 0.00 | 0.00 | 77 | 1100.1 |
| 20260506145506 | 15 | 0 | 0.0 | 0.0 | 0.00 | 0.00 | 0.00 | 80 | 1012.6 |
| 20260506145006 | 16 | 0 | 0.0 | 0.0 | 0.00 | 0.00 | 0.00 | 79 | 1012.5 |
| 20260506144506 | 15 | 213 | 12.9 | 0.0 | 0.00 | 0.00 | 0.00 | 77 | 1100.1 |
| 20260506143113 | 15 | 236 | 12.9 | 0.0 | 0.00 | 0.00 | 0.00 | 77 | 1100.1 |
| 20260506143006 | 16 | 0 | 0.0 | 0.0 | 0.00 | 0.00 | 0.00 | 80 | 1012.3 |
| 20260506142506 | 16 | 0 | 0.0 | 0.0 | 0.00 | 0.00 | 0.00 | 79 | 1012.2 |
| 20260506141624 | 16 | 224 | 11.3 | 0.0 | 0.00 | 0.00 | 0.00 | 74 | 1100.1 |
| 20260506141506 | 16 | 0 | 0.0 | 0.0 | 0.00 | 0.00 | 0.00 | 77 | 1012.5 |
| 20260506140506 | 16 | 0 | 0.0 | 0.0 | 0.00 | 0.00 | 0.00 | 79 | 1012.4 |
| 20260506140136 | 16 | 148 | 9.7 | 0.0 | 0.00 | 0.00 | 0.00 | 75 | 1100.1 |
| 20260506135007 | 16 | 0 | 0.0 | 0.0 | 0.00 | 0.00 | 0.00 | 80 | 1012.7 |
| 20260506134631 | 16 | 220 | 9.7 | 0.0 | 0.00 | 0.00 | 0.00 | 75 | 1100.1 |
| 20260506133507 | 16 | 0 | 0.0 | 0.0 | 0.00 | 0.00 | 0.00 | 81 | 1012.7 |
| 20260506133011 | 16 | 225 | 12.9 | 0.0 | 0.00 | 0.00 | 0.00 | 77 | 1100.1 |
| 20260506133006 | 16 | 0 | 0.0 | 0.0 | 0.00 | 0.00 | 0.00 | 82 | 1012.6 |
| 20260506132505 | 15 | 0 | 0.0 | 0.0 | 0.00 | 0.00 | 0.00 | 82 | 1012.6 |
| 20260506131609 | 15 | 230 | 9.7 | 0.0 | 0.00 | 0.00 | 0.00 | 77 | 1100.1 |
| 20260506130007 | 15 | 0 | 0.0 | 0.0 | 0.00 | 0.00 | 0.00 | 81 | 1012.4 |
| 20260506125007 | 15 | 0 | 0.0 | 0.0 | 0.00 | 0.00 | 0.00 | 83 | 1012.6 |
| 20260506124622 | 15 | 236 | 8.0 | 0.0 | 0.00 | 0.00 | 0.00 | 78 | 1100.1 |
| 20260506124006 | 15 | 0 | 0.0 | 0.0 | 0.00 | 0.00 | 0.00 | 83 | 1012.7 |
| 20260506123125 | 15 | 225 | 9.7 | 0.0 | 0.00 | 0.00 | 0.00 | 80 | 1100.1 |
| 20260506122506 | 15 | 0 | 0.0 | 0.0 | 0.00 | 0.00 | 0.00 | 84 | 1012.7 |
| 20260506121622 | 15 | 236 | 8.0 | 0.0 | 0.00 | 0.00 | 0.00 | 80 | 1100.1 |
| 20260506120131 | 15 | 244 | 9.7 | 0.0 | 0.00 | 0.00 | 0.00 | 82 | 1100.1 |
| 20260506114634 | 14 | 227 | 6.4 | 0.0 | 0.00 | 0.00 | 0.00 | 83 | 1100.1 |
| 20260506114506 | 13 | 0 | 0.0 | 0.0 | 0.00 | 0.00 | 0.00 | 88 | 1013.0 |
| 20260506114006 | 13 | 0 | 0.0 | 0.0 | 0.00 | 0.00 | 0.00 | 88 | 1013.0 |
| 20260506113506 | 13 | 0 | 0.0 | 0.0 | 0.00 | 0.00 | 0.00 | 88 | 1013.1 |
| 20260506113008 | 13 | 238 | 8.0 | 0.0 | 0.00 | 0.00 | 0.00 | 83 | 1100.1 |
| 20260506112006 | 13 | 0 | 0.0 | 0.0 | 0.00 | 0.00 | 0.00 | 90 | 1012.9 |
| 20260506111526 | 13 | 225 | 6.4 | 0.0 | 0.00 | 0.00 | 0.00 | 84 | 1100.1 |
| 20260506111007 | 13 | 0 | 0.0 | 0.0 | 0.00 | 0.00 | 0.00 | 91 | 1012.9 |
| 20260506110506 | 12 | 0 | 0.0 | 0.0 | 0.00 | 0.00 | 0.00 | 91 | 1013.0 |
| 20260506110108 | 13 | 189 | 9.7 | 0.0 | 0.00 | 0.00 | 0.00 | 86 | 1100.1 |
| 20260506105006 | 12 | 0 | 0.0 | 0.0 | 0.00 | 0.00 | 0.00 | 91 | 1013.2 |
| 20260506104612 | 12 | 216 | 6.4 | 0.0 | 0.00 | 0.00 | 0.00 | 87 | 1100.1 |
| 20260506104505 | 12 | 0 | 0.0 | 0.0 | 0.00 | 0.00 | 0.00 | 91 | 1013.1 |
| 20260506104006 | 12 | 0 | 0.0 | 0.0 | 0.00 | 0.00 | 0.00 | 91 | 1013.1 |
| 20260506103017 | 12 | 190 | 8.0 | 0.0 | 0.00 | 0.00 | 0.00 | 87 | 1100.1 |
| 20260506102006 | 12 | 0 | 0.0 | 0.0 | 0.00 | 0.00 | 0.00 | 91 | 1012.9 |
| 20260506101638 | 12 | 217 | 8.0 | 0.0 | 0.00 | 0.00 | 0.00 | 87 | 1100.1 |
| 20260506101506 | 12 | 0 | 0.0 | 0.0 | 0.00 | 0.00 | 0.00 | 91 | 1012.9 |
| 20260506100506 | 12 | 0 | 0.0 | 0.0 | 0.00 | 0.00 | 0.00 | 91 | 1012.9 |
| 20260506100118 | 12 | 228 | 6.4 | 0.0 | 0.00 | 0.00 | 0.00 | 87 | 1100.1 |
| 20260506095506 | 12 | 0 | 0.0 | 0.0 | 0.00 | 0.00 | 0.00 | 91 | 1012.9 |
| 20260506095006 | 12 | 0 | 0.0 | 0.0 | 0.00 | 0.00 | 0.00 | 90 | 1012.9 |
| 20260506094631 | 12 | 267 | 8.0 | 0.0 | 0.00 | 0.00 | 0.00 | 87 | 1100.1 |
| 20260506094506 | 12 | 0 | 0.0 | 0.0 | 0.00 | 0.00 | 0.00 | 90 | 1013.0 |
| 20260506093506 | 12 | 0 | 0.0 | 0.0 | 0.00 | 0.00 | 0.00 | 90 | 1013.0 |
| 20260506093133 | 12 | 190 | 6.4 | 0.0 | 0.00 | 0.00 | 0.00 | 86 | 1100.1 |
| 20260506093007 | 12 | 0 | 0.0 | 0.0 | 0.00 | 0.00 | 0.00 | 90 | 1013.0 |
| 20260506092006 | 13 | 0 | 0.0 | 0.0 | 0.00 | 0.00 | 0.00 | 91 | 1013.1 |
| 20260506091555 | 13 | 229 | 8.0 | 0.0 | 0.00 | 0.00 | 0.00 | 86 | 1100.1 |
| 20260506091505 | 13 | 0 | 0.0 | 0.0 | 0.00 | 0.00 | 0.00 | 91 | 1013.1 |
| 20260506090506 | 13 | 0 | 0.0 | 0.0 | 0.00 | 0.00 | 0.00 | 91 | 1013.0 |
| 20260506090144 | 13 | 203 | 9.7 | 0.0 | 0.00 | 0.00 | 0.00 | 86 | 1100.1 |
| 20260506085006 | 13 | 0 | 0.0 | 0.0 | 0.00 | 0.00 | 0.00 | 91 | 1013.0 |
| 20260506084510 | 13 | 229 | 9.7 | 0.0 | 0.00 | 0.00 | 0.00 | 87 | 1100.1 |
| 20260506084006 | 13 | 0 | 0.0 | 0.0 | 0.00 | 0.00 | 0.00 | 92 | 1013.1 |
| 20260506083015 | 13 | 238 | 9.7 | 0.0 | 0.00 | 0.00 | 0.00 | 87 | 1100.1 |
| 20260506083006 | 13 | 0 | 0.0 | 0.0 | 0.00 | 0.00 | 0.00 | 92 | 1013.1 |
| 20260506082006 | 12 | 0 | 0.0 | 0.0 | 0.00 | 0.00 | 0.00 | 92 | 1013.1 |
| 20260506081503 | 12 | 227 | 8.0 | 0.0 | 0.00 | 0.00 | 0.00 | 87 | 1100.1 |
| 20260506081007 | 12 | 0 | 0.0 | 0.0 | 0.00 | 0.00 | 0.00 | 91 | 1013.2 |
| 20260506080506 | 12 | 0 | 0.0 | 0.0 | 0.00 | 0.00 | 0.00 | 91 | 1013.2 |
| 20260506080144 | 12 | 229 | 9.7 | 0.0 | 0.00 | 0.00 | 0.00 | 87 | 1100.1 |
| 20260506073137 | 12 | 228 | 6.4 | 0.0 | 0.00 | 0.00 | 0.00 | 87 | 1100.1 |
| 20260506072006 | 12 | 0 | 0.0 | 0.0 | 0.00 | 0.00 | 0.00 | 91 | 1013.1 |
| 20260506071626 | 12 | 216 | 8.0 | 0.0 | 0.00 | 0.00 | 0.00 | 87 | 1100.1 |
| 20260506071505 | 12 | 0 | 0.0 | 0.0 | 0.00 | 0.00 | 0.00 | 91 | 1013.1 |